Wind_Speed
22 22 21 21 21 21 20 20 20 19 20 21 20 20 18 18 18 17 16 15 14 13 13 13 14 14 14 14 14 14 15 16 15 15 15 15 15 15 15 16 16 16 16 16
23 22 20 22 22 22 22 21 21 20 21 22 22 21 19 19 19 19 18 17 15 14 14 14 15 15 15 15 15 15 16 16 16 16 16 16 16 16 16 16 16 18 17 17
23 21 22 23 23 23 22 22 22 22 23 23 23 22 21 20 21 21 20 19 18 17 16 16 17 16 15 15 16 16 16 17 17 17 16 16 16 16 17 17 17 16 17 17
23 23 24 24 23 23 22 22 23 23 24 24 24 24 22 22 22 22 22 21 20 20 19 18 17 17 17 17 16 17 17 16 16 17 17 17 17 16 17 17 17 17 17 17
23 23 24 24 23 23 22 23 23 24 26 26 25 25 22 22 22 22 22 22 22 22 21 20 19 18 17 17 17 17 17 16 16 17 17 17 17 17 17 17 17 17 17 17
24 25 25 24 24 25 24 25 26 27 28 28 25 26 24 21 21 20 21 22 22 21 21 21 20 19 17 17 17 17 17 18 17 17 17 17 17 17 17 16 16 16 17 17
25 25 25 25 26 26 26 27 28 29 29 27 25 28 25 22 20 20 21 21 21 21 21 20 20 19 18 19 19 19 18 18 17 17 17 17 18 18 18 17 17 16 17 18
25 25 26 26 26 26 27 28 28 29 28 27 26 27 25 22 21 21 21 21 21 22 21 21 22 20 20 20 20 20 18 18 18 18 18 18 19 19 18 19 19 18 18 19
26 25 25 25 25 26 27 27 27 29 29 28 27 26 23 22 21 21 22 22 22 23 23 23 22 21 20 20 20 20 19 19 18 18 18 18 19 19 19 19 19 18 18 18
27 26 25 24 25 26 26 26 27 28 28 28 27 25 23 22 22 22 23 23 24 24 24 23 23 22 21 20 20 20 19 19 19 18 18 18 17 17 18 18 18 17 18 18
27 26 25 25 25 25 26 26 27 28 28 28 28 25 23 23 23 23 23 24 24 25 25 24 24 23 22 21 21 22 21 21 20 19 19 18 18 18 19 19 18 18 18 19
26 27 26 26 26 26 27 27 27 28 29 29 29 27 24 23 23 23 23 24 25 25 26 25 24 23 22 22 23 23 23 23 22 21 20 19 19 19 19 19 18 18 19 19
27 28 28 28 27 27 28 28 29 29 30 31 30 28 25 25 24 24 24 25 25 26 26 25 25 25 24 23 24 24 24 24 23 22 22 21 21 20 20 19 19 19 19 19
29 29 30 30 29 29 29 29 30 30 31 32 30 28 27 26 26 25 25 26 25 25 26 26 26 25 25 25 26 25 25 24 23 24 23 22 22 22 21 20 20 21 21 21
29 30 30 30 30 30 31 31 30 31 30 31 29 29 28 28 27 26 25 26 26 26 26 26 25 25 26 26 27 26 24 24 24 23 24 24 24 23 22 23 22 22 22 22
31 31 31 31 31 32 32 32 31 31 30 30 30 30 29 29 28 27 26 26 26 27 27 26 26 26 25 26 26 25 25 24 24 24 25 25 25 25 25 24 23 23 24 23
30 31 31 32 33 33 33 32 32 31 31 30 30 30 29 28 28 27 27 28 28 27 27 26 25 25 25 25 25 25 24 24 24 24 25 26 27 26 26 26 24 24 24 24
29 29 30 31 32 34 34 33 32 32 32 31 30 30 29 28 28 28 28 28 28 28 27 26 26 26 26 25 25 24 25 25 24 24 25 27 28 28 27 26 25 25 25 25
30 30 30 31 32 33 32 32 32 31 31 30 31 30 30 28 28 28 29 29 28 29 28 27 26 26 26 26 25 25 25 25 25 24 25 26 26 26 26 26 26 26 25 25
28 28 29 30 31 32 31 31 31 32 31 30 30 30 30 30 30 29 29 30 29 29 29 28 27 27 27 27 26 26 26 26 25 25 25 25 26 26 26 26 27 27 26 25
27 27 28 29 30 31 30 30 30 31 30 30 29 29 30 30 31 30 30 30 29 28 28 28 28 28 28 28 28 28 28 27 26 26 26 26 26 26 26 27 26 27 27 26
25 26 27 28 29 29 29 29 29 29 30 30 30 30 30 31 32 31 30 29 28 28 28 29 29 28 28 28 28 28 28 26 25 25 25 25 25 25 26 26 25 26 27 26
24 25 26 27 27 27 27 28 28 28 28 29 30 30 31 31 31 30 30 29 29 29 29 28 28 28 28 27 27 27 26 25 24 24 25 25 25 25 24 25 25 26 26 25
24 25 26 26 26 25 26 26 27 28 28 28 29 30 31 30 30 29 29 29 29 29 28 28 27 27 26 25 26 26 26 25 23 24 24 25 24 24 25 25 25 25 25 26
22 24 25 25 25 26 26 26 27 28 29 28 28 28 28 28 28 28 26 25 25 25 26 26 26 25 25 25 25 25 25 24 24 24 24 25 25 25 24 24 25 25 25 26
21 23 23 23 24 25 25 26 26 26 26 26 27 26 25 25 25 25 25 24 24 23 23 24 24 24 25 24 24 24 25 25 25 23 23 23 24 23 24 24 24 25 25 25
Wind_Direction
241 241 240 243 245 246 246 247 251 252 256 259 260 260 259 261 265 270 272 276 281 283 282 284 288 294 290 290 292 292 291 294 294 289 287 286 283 281 279 280 274 270 265 263
240 240 239 241 243 245 248 250 251 253 257 260 260 260 262 262 266 269 270 272 277 278 282 287 291 292 288 289 292 293 292 292 291 287 284 284 281 277 278 278 279 270 264 261
241 239 239 242 244 247 249 252 252 253 255 260 262 260 260 265 269 269 270 269 271 274 277 280 284 285 285 287 289 291 291 289 288 285 282 282 281 280 277 276 276 272 267 264
240 239 241 243 245 248 250 252 251 252 255 260 264 266 263 265 269 271 269 268 270 273 275 275 278 280 281 283 286 291 292 289 287 285 283 281 280 278 276 275 274 274 272 267
240 240 242 245 247 250 252 252 252 253 257 260 264 269 269 267 267 270 268 270 272 272 272 272 275 278 278 278 281 287 292 292 289 285 284 281 279 277 275 274 273 271 269 268
238 239 242 246 248 251 252 254 255 256 259 262 264 269 272 271 269 271 269 269 272 271 271 271 274 274 277 278 280 282 290 292 291 287 284 282 282 279 278 275 273 270 265 265
239 241 245 248 250 252 254 256 259 260 261 265 266 267 272 272 271 272 272 272 272 270 269 270 273 275 279 282 284 282 287 290 291 288 285 284 283 281 278 275 274 271 268 265
242 242 246 249 252 255 256 258 260 263 266 267 266 267 272 272 273 273 273 272 271 271 269 274 274 275 277 281 284 285 284 286 288 287 284 284 283 280 277 278 277 272 268 266
246 245 246 248 249 251 253 256 260 263 266 268 268 270 272 272 274 274 274 274 274 274 274 275 273 273 277 281 284 284 284 283 284 285 283 282 280 276 276 278 278 273 272 271
247 246 245 244 246 248 251 254 257 260 265 268 270 272 273 274 273 273 273 273 273 274 275 275 274 277 278 279 281 279 281 282 280 280 281 280 280 279 277 279 278 277 274 271
247 246 245 245 245 248 250 252 255 258 262 266 270 273 275 275 274 275 274 272 273 273 273 274 274 274 274 275 275 276 277 279 278 277 277 278 277 277 280 277 277 278 276 274
249 248 246 246 248 250 253 255 257 259 262 265 269 273 274 273 273 274 274 272 273 274 275 275 273 271 269 271 272 273 276 278 278 277 275 274 274 274 276 275 275 276 277 278
249 249 248 247 248 251 253 256 259 261 263 266 269 274 273 272 271 273 274 274 273 273 274 274 274 272 268 268 269 270 274 278 276 275 274 273 272 272 271 271 274 276 277 278
250 251 251 252 252 253 255 256 259 262 265 267 269 272 272 271 270 269 269 272 273 272 273 275 274 274 269 268 268 269 272 275 276 274 272 271 271 270 270 268 271 276 277 277
252 252 253 254 255 255 257 258 260 262 265 267 268 269 270 270 271 269 268 270 271 272 272 273 273 274 273 272 272 271 272 273 275 274 271 270 270 271 271 268 268 272 275 276
252 253 253 255 257 257 257 258 261 263 266 267 267 268 270 270 271 271 269 269 271 272 271 273 275 275 274 274 274 272 271 273 274 273 270 271 271 271 270 268 268 267 269 272
252 253 254 256 257 260 259 260 261 261 264 266 267 270 272 272 271 269 268 269 272 272 271 271 272 274 274 274 273 272 271 271 272 272 272 272 270 268 267 268 270 268 268 268
257 256 257 259 259 260 262 262 262 263 264 265 267 269 271 272 271 269 268 270 271 271 270 268 269 272 273 272 271 271 271 271 273 274 274 273 269 267 266 267 269 268 268 268
257 258 259 260 260 262 263 263 264 265 265 266 267 268 270 271 270 270 270 270 271 270 269 267 269 271 272 271 269 269 271 271 273 273 273 271 269 265 265 266 267 266 266 268
256 257 260 261 263 264 264 264 264 265 265 266 266 268 268 268 268 269 270 270 269 269 269 269 268 270 270 271 270 268 269 269 270 270 271 270 269 267 266 267 267 264 264 267
255 256 258 261 263 263 263 264 266 265 265 265 266 267 267 268 268 269 270 270 270 268 268 269 268 269 269 269 268 267 267 267 267 268 269 269 268 267 266 267 267 264 263 264
256 257 259 261 264 264 264 264 265 265 265 265 266 267 268 269 270 269 268 268 269 269 269 270 269 268 267 267 266 266 266 266 267 267 268 269 269 267 266 266 264 264 263 263
260 261 262 262 264 264 264 264 264 265 266 266 267 268 268 268 268 268 267 267 268 269 268 269 270 269 266 265 264 265 266 266 265 265 266 267 267 266 266 265 265 266 267 267
262 262 263 264 265 264 264 263 263 264 266 266 267 266 266 266 265 266 267 267 268 268 268 267 267 267 266 265 265 264 265 266 265 265 266 266 264 265 266 267 266 267 268 269
263 263 263 264 263 263 264 263 263 265 266 267 268 267 267 267 266 265 266 267 267 266 266 265 265 265 265 264 263 262 261 262 262 262 265 266 266 267 267 268 268 268 269 270
264 265 264 265 265 265 264 262 261 262 264 265 267 267 268 268 265 265 264 265 265 264 265 265 264 264 264 263 263 260 260 262 262 261 263 266 267 266 268 269 270 271 272 272
Height
5832 5835 5837 5840 5841 5843 5844 5845 5846 5847 5847 5847 5848 5849 5850 5850 5851 5851 5852 5852 5852 5852 5852 5850 5849 5848 5848 5847 5847 5846 5845 5844 5842 5842 5841 5839 5839 5839 5838 5838 5838 5838 5838 5839
5828 5831 5834 5835 5836 5838 5839 5841 5842 5843 5842 5843 5843 5844 5846 5846 5847 5847 5848 5848 5848 5848 5848 5847 5846 5845 5844 5844 5843 5842 5840 5839 5838 5837 5836 5835 5835 5834 5834 5834 5834 5834 5834 5834
5824 5828 5828 5830 5831 5833 5835 5836 5837 5838 5838 5838 5839 5840 5841 5842 5842 5842 5843 5844 5844 5844 5843 5843 5842 5841 5840 5839 5839 5837 5836 5835 5834 5833 5831 5831 5830 5830 5830 5830 5830 5830 5830 5830
5818 5821 5823 5824 5826 5828 5830 5832 5832 5833 5833 5833 5834 5834 5837 5837 5837 5837 5838 5839 5839 5839 5839 5838 5837 5836 5835 5835 5834 5833 5831 5830 5829 5828 5827 5827 5826 5826 5825 5825 5825 5825 5825 5826
5814 5816 5817 5820 5822 5823 5825 5826 5827 5827 5827 5828 5829 5829 5832 5832 5832 5832 5833 5833 5834 5834 5833 5833 5832 5831 5830 5830 5829 5828 5827 5826 5825 5824 5823 5822 5822 5821 5820 5820 5820 5820 5820 5821
5808 5810 5812 5815 5816 5818 5819 5820 5821 5821 5821 5823 5825 5824 5825 5827 5827 5828 5828 5827 5828 5828 5828 5827 5827 5826 5825 5825 5824 5822 5822 5821 5820 5819 5818 5817 5817 5816 5816 5816 5815 5815 5816 5816
5802 5804 5806 5808 5810 5812 5813 5814 5815 5815 5815 5817 5819 5818 5820 5822 5822 5822 5822 5822 5822 5822 5822 5822 5821 5821 5820 5820 5819 5818 5817 5816 5815 5814 5813 5813 5812 5812 5811 5811 5811 5811 5811 5811
5796 5799 5801 5802 5804 5806 5807 5808 5810 5810 5810 5812 5813 5812 5815 5816 5816 5816 5816 5816 5816 5817 5816 5816 5816 5816 5816 5815 5814 5813 5812 5812 5811 5810 5809 5808 5808 5807 5807 5807 5806 5806 5805 5806
5790 5793 5795 5797 5798 5800 5800 5801 5803 5804 5804 5805 5806 5807 5809 5810 5811 5811 5811 5811 5811 5811 5811 5810 5810 5811 5810 5810 5809 5808 5807 5807 5806 5805 5804 5803 5803 5802 5802 5802 5802 5801 5800 5800
5784 5786 5789 5791 5792 5793 5795 5796 5797 5797 5797 5798 5799 5801 5803 5804 5805 5805 5805 5805 5805 5805 5805 5805 5805 5805 5804 5804 5803 5803 5802 5801 5801 5800 5799 5798 5797 5797 5797 5797 5796 5796 5795 5795
5777 5780 5783 5784 5785 5787 5789 5790 5790 5791 5792 5792 5793 5797 5797 5798 5798 5799 5799 5798 5798 5798 5798 5798 5798 5798 5798 5797 5797 5796 5796 5795 5795 5794 5793 5793 5792 5791 5791 5791 5790 5790 5790 5789
5771 5773 5776 5778 5780 5781 5782 5783 5785 5786 5786 5786 5787 5792 5791 5791 5792 5792 5792 5791 5791 5791 5791 5791 5791 5792 5791 5791 5791 5790 5790 5789 5788 5788 5787 5787 5786 5786 5785 5785 5785 5785 5784 5784
5764 5767 5769 5771 5775 5775 5776 5777 5778 5779 5780 5780 5781 5785 5784 5784 5785 5785 5785 5784 5784 5784 5784 5784 5784 5784 5784 5784 5784 5783 5783 5782 5782 5781 5780 5780 5780 5780 5779 5780 5779 5779 5779 5778
5757 5759 5762 5765 5766 5768 5769 5770 5771 5772 5772 5773 5775 5776 5777 5777 5777 5778 5778 5777 5777 5777 5777 5777 5777 5776 5776 5776 5776 5776 5775 5775 5774 5773 5773 5774 5774 5774 5773 5773 5773 5773 5773 5772
5750 5751 5754 5756 5758 5760 5761 5763 5764 5765 5765 5766 5768 5768 5769 5769 5770 5770 5770 5770 5770 5770 5769 5769 5769 5769 5769 5768 5768 5768 5768 5767 5767 5766 5767 5767 5767 5767 5767 5766 5767 5766 5766 5766
5742 5744 5746 5748 5750 5751 5753 5755 5756 5757 5758 5759 5759 5761 5762 5762 5762 5762 5763 5763 5762 5762 5762 5762 5762 5762 5761 5761 5760 5760 5760 5760 5760 5760 5760 5759 5759 5759 5759 5759 5759 5760 5759 5759
5734 5736 5738 5740 5741 5742 5744 5747 5748 5749 5750 5751 5751 5754 5754 5754 5754 5755 5755 5755 5755 5754 5754 5754 5754 5754 5753 5753 5753 5752 5753 5753 5753 5753 5752 5752 5751 5751 5751 5752 5752 5752 5752 5752
5725 5728 5729 5731 5733 5733 5738 5738 5739 5740 5742 5743 5743 5744 5745 5746 5746 5746 5746 5747 5747 5746 5746 5746 5746 5746 5745 5745 5745 5745 5745 5745 5745 5745 5744 5744 5744 5743 5743 5744 5744 5745 5745 5744
5718 5719 5721 5722 5723 5724 5728 5729 5730 5732 5733 5734 5734 5735 5736 5736 5737 5737 5738 5738 5738 5738 5738 5738 5738 5737 5737 5737 5737 5737 5737 5737 5737 5737 5736 5736 5735 5735 5735 5736 5737 5737 5737 5737
5710 5711 5713 5714 5715 5716 5720 5721 5721 5723 5724 5726 5726 5726 5727 5728 5728 5730 5729 5729 5729 5729 5729 5729 5729 5729 5729 5729 5729 5729 5729 5729 5729 5729 5729 5728 5728 5727 5727 5728 5728 5729 5729 5729
5703 5704 5706 5707 5707 5708 5711 5712 5714 5716 5717 5717 5717 5718 5718 5719 5720 5721 5720 5720 5720 5720 5720 5720 5720 5721 5721 5720 5721 5721 5721 5721 5721 5721 5720 5720 5720 5720 5720 5720 5719 5720 5720 5721
5696 5697 5699 5699 5700 5703 5703 5704 5706 5707 5707 5708 5708 5709 5709 5710 5710 5710 5711 5711 5712 5712 5712 5711 5711 5712 5712 5712 5712 5712 5712 5712 5712 5712 5712 5712 5712 5712 5712 5711 5711 5712 5711 5712
5689 5691 5691 5693 5695 5694 5695 5696 5697 5698 5699 5699 5700 5700 5700 5701 5701 5701 5702 5702 5703 5703 5703 5703 5703 5703 5703 5703 5703 5704 5703 5703 5704 5704 5704 5704 5704 5704 5704 5704 5703 5704 5703 5703
5683 5683 5684 5685 5686 5686 5687 5688 5689 5690 5690 5691 5691 5691 5691 5691 5692 5692 5693 5693 5693 5693 5694 5694 5694 5694 5695 5695 5695 5696 5696 5696 5696 5696 5696 5696 5696 5696 5696 5696 5696 5695 5695 5696
5676 5676 5676 5677 5679 5679 5680 5680 5681 5682 5682 5683 5683 5683 5682 5683 5683 5683 5684 5684 5684 5684 5685 5685 5685 5686 5686 5687 5687 5688 5688 5689 5689 5689 5688 5688 5688 5688 5688 5688 5688 5687 5687 5687
5670 5670 5670 5671 5671 5671 5672 5672 5672 5673 5674 5675 5675 5675 5675 5674 5675 5675 5676 5676 5676 5676 5677 5677 5677 5678 5678 5679 5679 5680 5680 5681 5681 5681 5681 5681 5681 5680 5681 5681 5681 5680 5680 5679